Location: Treviso
(45.6669°N, 12.2430°E)
Time: 23:43:09
(UTC+02:00)

ISS - Visible Passes

Search period start: 23 September 2017 00:00
Search period end: 03 October 2017 00:00
Orbit: 401 x 407 km, 51.6° (Epoch: 24 September)

Date Brightness Start Highest point End Pass type
(mag) Time Alt. Az. Time Alt. Az. Time Alt. Az.
24 Sep -1.5 20:35:33 10° S 20:36:12 13° S 20:36:12 13° S visible
25 Sep -1.7 19:44:48 10° SSE 19:45:57 11° SE 19:46:49 11° ESE visible
25 Sep -1.4 21:18:39 10° SW 21:19:31 17° SW 21:19:31 17° SW visible
26 Sep -3.4 20:26:32 10° SW 20:29:38 42° SE 20:29:53 41° SE visible
27 Sep -2.5 19:34:43 10° SSW 19:37:26 24° SE 19:40:04 11° E visible
27 Sep -2.4 21:10:28 10° WSW 21:12:44 38° W 21:12:44 38° W visible
28 Sep -3.9 20:18:04 10° WSW 20:21:20 88° SSE 20:22:45 31° ENE visible
28 Sep -0.4 21:55:07 10° WNW 21:55:24 12° WNW 21:55:24 12° WNW visible
29 Sep -3.5 19:25:49 10° SW 19:29:00 51° SE 19:32:13 10° ENE visible
29 Sep -2.4 21:02:28 10° W 21:05:17 36° NNW 21:05:17 36° NNW visible
30 Sep -3.1 20:09:53 10° W 20:13:05 51° NNW 20:15:03 21° NE visible
30 Sep -0.5 21:47:08 10° WNW 21:47:42 13° WNW 21:47:42 13° WNW visible
01 Oct -3.7 19:17:23 10° WSW 19:20:38 79° NNW 19:23:56 10° ENE visible
01 Oct -2.2 20:54:31 10° WNW 20:57:23 29° N 20:57:23 29° N visible
02 Oct -2.5 20:01:51 10° W 20:04:53 35° NNW 20:07:01 17° NE visible
02 Oct -0.6 21:39:00 10° NW 21:39:39 14° NW 21:39:39 14° NW visible
